This is the latest recevied weather packets stored in our database for station/object K4OAM-13. If no packets are shown the sender has not sent any weather packets the latest 10 day(s).
| Time | Temp. | Humidity | Pressure | Rain* | Wind** | Luminosity | Snow |
|---|---|---|---|---|---|---|---|
| 1777896957 | 8.33° C | 76% | 1008.6 hPa | - | - | - | - |
| 1777896357 | 8.33° C | 76% | 1008.7 hPa | - | - | - | - |
| 1777895757 | 7.78° C | 77% | 1008.4 hPa | - | - | - | - |
| 1777895157 | 7.78° C | 77% | 1008.7 hPa | - | - | - | - |
| 1777894557 | 7.78° C | 78% | 1008.9 hPa | - | - | - | - |
| 1777893957 | 7.78° C | 78% | 1008.8 hPa | - | - | - | - |
| 1777893357 | 7.78° C | 78% | 1008.7 hPa | - | - | - | - |
| 1777892757 | 7.78° C | 77% | 1008.9 hPa | - | - | - | - |
| 1777892156 | 7.78° C | 76% | 1008.7 hPa | - | - | - | - |
| 1777891557 | 7.22° C | 80% | 1009 hPa | - | - | - | - |
| 1777890957 | 7.22° C | 83% | 1009 hPa | - | - | - | - |
| 1777890357 | 7.78° C | 79% | 1009 hPa | - | - | - | - |
| 1777889757 | 7.78° C | 76% | 1009.1 hPa | - | - | - | - |
| 1777889157 | 7.78° C | 75% | 1008.9 hPa | - | - | - | - |
| 1777888557 | 7.78° C | 76% | 1008.9 hPa | - | - | - | - |
| 1777887957 | 7.22° C | 76% | 1009.2 hPa | - | - | - | - |
| 1777887357 | 7.22° C | 79% | 1009.3 hPa | - | - | - | - |
| 1777886757 | 7.22° C | 78% | 1009.6 hPa | - | - | - | - |
| 1777886157 | 7.78° C | 76% | 1009.5 hPa | - | - | - | - |
| 1777885557 | 7.78° C | 73% | 1009.6 hPa | - | - | - | - |
| 1777884957 | 7.78° C | 72% | 1009.7 hPa | - | - | - | - |
| 1777884357 | 7.22° C | 72% | 1009.7 hPa | - | - | - | - |
| 1777883757 | 7.78° C | 72% | 1009.7 hPa | - | - | - | - |
| 1777883157 | 7.78° C | 71% | 1009.7 hPa | - | - | - | - |
| 1777882557 | 7.78° C | 71% | 1009.7 hPa | - | - | - | - |
* Rain since midnight (hover to see other rain measurements)
** Current wind speed in m/s (hover to see current wind gust speed)